Terminal Aerodrome Forecast
Issued by NWS Cleveland, OH

Home | Current Version | Previous Version | Graphics & Text | Print | Product List | Glossary Off
Versions: 1 2 3 4 5 6 7 8 9 10 11 12 13 14

000
FTUS41 KCLE 230527
TAFCAK
TAF
KCAK 230527Z 2306/2406 28005KT P6SM BKN070
     FM230900 31005KT P6SM FEW070
     FM231600 30010KT P6SM BKN050
     FM240100 30006KT P6SM BKN100=

USA.gov is the U.S. government's official web portal to all federal, state and local government web resources and services.